[[{"header":{"parameterUnit":"m.s-1","parameterCategory":1,"la1":30.2991,"la2":30.254,"lo1":-89.0895,"lo2":-89.0444,"dy":0.0017,"dx":0.0017,"nx":28,"ny":28,"refTime":"2024-06-25T03:00:00:Z","depth":0,"parameterNumber":2,"parameterNumberName":"U-component_of_WINDS"},"data":[0,0,0,0,0,0,0,0,0,0,0,0,0,0,0,0,0,0,0,0,0,0,0,0,0,0,0,0,0,0,0,0,0,0,0,0,0,0,0,0,0,0,0,0,0,0,0,0,0,0,0,0,0,0,0,0,0,0,4.1984,4.1985,0,4.2116,4.2118,4.2119,4.2071,4.2068,4.2065,4.2063,4.2202,4.2208,4.2215,0,0,0,0,0,0,0,0,0,0,0,0,0,4.1694,4.17,4.1984,4.1985,4.1987,4.2116,4.2118,4.212,4.2072,4.2068,4.2065,4.2061,4.22,4.2207,4.2215,0,0,0,0,0,0,0,0,0,0,0,0,0,4.1823,4.1702,4.1983,4.1979,4.198,4.2116,4.2118,4.212,4.2073,4.2068,4.2064,4.206,4.2197,4.2207,4.2216,4.2366,0,0,4.2246,4.225,0,0,0,0,0,0,0,0,4.1815,4.1833,4.1978,4.1979,4.198,4.2073,4.2067,4.2203,4.2074,4.2038,4.2063,4.2057,4.2163,4.2175,4.221,4.2373,4.2378,4.2247,4.2253,4.2257,4.226,0,0,0,0,0,0,0,4.1807,4.1827,4.2036,4.198,4.1982,4.1972,4.1985,4.2092,4.2124,4.204,4.2037,4.2053,4.2163,4.2201,4.2213,4.2381,4.2247,4.2255,4.2261,4.2265,4.2676,4.2681,0,0,0,0,0,0,4.1797,4.182,4.2032,4.204,4.1885,4.198,4.1995,4.2048,4.2122,4.2129,4.2057,4.2051,4.2186,4.2201,4.2218,4.24,4.2257,4.2266,4.2272,4.2671,4.2677,4.2683,0,0,0,0,0,0,4.179,4.1816,4.2027,4.193,4.1955,4.199,4.2049,4.2053,4.209,4.2135,4.2141,4.209,4.2183,4.2204,4.233,4.2404,4.227,4.2279,4.2665,4.2673,4.268,4.2765,0,0,0,0,0,0,4.1782,4.1814,4.187,4.1931,4.1961,4.2136,4.2054,4.2058,4.2107,4.21,4.2167,4.2174,4.2181,4.2316,4.234,4.2415,4.2287,4.2659,4.2669,4.2678,4.2756,4.2774,4.279,0,0,0,0,0,4.1772,4.1888,4.1873,4.1899,4.2031,4.214,4.2157,4.2162,4.2113,4.2171,4.22,4.2172,4.2392,4.2329,4.2356,4.2435,4.2654,4.2666,4.2677,4.2748,4.2771,4.279,0,0,0,0,0,0,4.1836,4.1896,4.188,4.2019,4.2075,4.2131,4.2204,4.2186,4.2257,4.2248,4.2252,4.2268,4.2398,4.2429,4.2358,4.2585,4.2516,4.2533,4.2561,4.2583,4.26,4.259,4.2295,0,0,0,0,0,4.1866,4.1948,4.1996,4.2115,4.2144,4.2169,4.2217,4.2216,4.2274,4.2298,4.2336,4.2394,4.2477,4.2531,4.2609,4.2759,4.2775,4.2827,4.2845,4.2859,4.2874,4.2959,4.2984,4.272,4.272,4.272,0,0,4.1929,4.1972,4.2024,4.2129,4.2172,4.2258,4.2189,4.2283,4.2348,4.2312,4.2434,4.2464,4.253,4.267,4.2733,4.27,4.295,4.2873,4.2884,4.2892,4.2973,4.2998,4.302,4.2728,4.2727,4.2725,0,0,4.2089,4.2129,4.2233,4.2278,4.2344,4.236,4.2385,4.2446,4.2464,4.2586,4.2562,4.264,4.2781,4.283,4.2874,4.3055,4.3033,4.308,4.3172,4.3254,4.3275,4.3293,4.336,4.3384,4.3095,4.3095,4.3095,0,4.2159,4.2287,4.2289,4.2386,4.2434,4.2405,4.2512,4.2555,4.2644,4.2679,4.264,4.2818,4.286,4.3012,4.3057,4.3092,4.3123,4.3073,4.3271,4.329,4.3307,4.3371,4.3396,4.3101,4.31,4.3099,4.3099,0,4.2372,4.2462,4.2538,4.2625,4.2681,4.2782,4.2801,4.2859,4.2854,4.2875,4.3002,4.3051,4.314,4.3176,4.3172,4.3328,4.3306,4.3269,4.32,4.3338,4.3398,4.3422,4.3108,4.3107,4.3105,4.3104,0,0,4.2576,4.2662,4.2691,4.2731,4.2802,4.2872,4.2973,4.306,4.311,4.3173,4.3259,4.3381,4.3348,4.3397,4.3398,4.347,4.3614,4.3425,4.3427,4.3461,4.3793,4.3821,4.3849,4.3599,4.3604,4.3608,4.3788,0,4.2743,4.2919,4.2925,4.3087,4.3172,4.3146,4.3235,4.3289,4.3313,4.3389,4.3415,4.3502,4.345,4.348,4.355,4.3581,4.3681,4.3568,4.3682,4.3686,4.3668,4.388,4.391,4.4078,4.3811,4.3815,4.3818,0,4.2961,4.3031,4.3202,4.3264,4.3299,4.3378,4.3459,4.3532,4.3594,4.3606,4.3663,4.3654,4.376,4.3686,4.3833,4.3756,4.3803,4.3826,4.3833,4.3845,4.3762,4.39,4.4131,4.4157,4.3855,4.3852,4.3849,0,4.3096,4.3232,4.3352,4.3387,4.3461,4.3518,4.3552,4.361,4.3662,4.3734,4.3768,4.3851,4.3897,4.3962,4.3977,4.3922,4.4126,4.4052,4.4141,4.4141,4.4186,4.4183,4.443,4.4213,4.4213,4.4213,4.4212,0,4.3283,4.3389,4.3414,4.3488,4.3607,4.3613,4.3731,4.3761,4.3813,4.3895,4.3878,4.3954,4.3968,4.4049,4.4061,4.4183,4.4203,4.4218,4.422,4.422,4.4219,4.4252,4.4242,4.4219,4.4218,4.4216,4.4215,0,4.3453,4.3474,4.3604,4.3664,4.3682,4.3767,4.3819,4.3892,4.3913,4.4016,4.4041,4.4076,4.417,4.4191,4.4303,4.4311,4.4456,4.4446,4.4435,4.4435,4.4523,4.4515,4.4801,4.484,4.4596,4.4599,4.4601,0,4.3572,4.3653,4.3722,4.3775,4.3812,4.3897,4.3951,4.3961,4.4017,4.4096,4.416,4.4252,4.4326,4.4478,4.4514,4.4601,4.4594,4.4688,4.4607,4.4605,4.4598,4.4594,4.4603,4.4704,4.4707,4.4709,4.4711,0,4.3782,4.3789,4.3866,4.3948,4.4013,4.4078,4.414,4.4185,4.4203,4.4269,4.4364,4.4422,4.4537,4.463,4.4716,4.4753,4.4737,4.4736,4.4761,4.4763,4.4754,4.4763,4.448,4.473,4.4728,4.4726,4.4725,4.4725,4.3932,4.4004,4.4064,4.4152,4.42,4.4259,4.433,4.4361,4.4441,4.4534,4.4536,4.4641,4.4704,4.4819,4.4861,4.4945,4.4916,4.4952,4.4962,4.4971,4.498,4.474,4.496,4.496,4.4959,4.4959,4.4959,0,4.4143,4.4181,4.4261,4.4349,4.4419,4.4395,4.4464,4.4524,4.4617,4.4676,4.475,4.4861,4.4952,4.4995,4.5085,4.5144,4.5139,4.5168,4.5165,4.5174,4.5,4.497,4.5171,4.5171,4.5171,4.5171,4.5171,4.5171,4.4261,4.4382,4.4396,4.4542,4.4579,4.4682,4.4723,4.4779,4.4826,4.4951,4.5026,4.5054,4.5108,4.5202,4.5285,4.5295,4.533,4.5363,4.537,4.5207,4.5186,4.5165,4.5137,4.537,4.537,4.5538,4.5539,4.5541]},{"header":{"parameterUnit":"m.s-1","parameterCategory":1,"la1":30.2991,"la2":30.254,"lo1":-89.0895,"lo2":-89.0444,"dy":0.0017,"dx":0.0017,"nx":28,"ny":28,"refTime":"2024-06-25T03:00:00:Z","depth":0,"parameterNumber":3,"parameterNumberName":"V-component_of_WINDS"},"data":[0,0,0,0,0,0,0,0,0,0,0,0,0,0,0,0,0,0,0,0,0,0,0,0,0,0,0,0,0,0,0,0,0,0,0,0,0,0,0,0,0,0,0,0,0,0,0,0,0,0,0,0,0,0,0,0,0,0,1.9703,1.9704,0,1.9868,1.987,1.9872,1.989,1.9888,1.9887,1.9885,2.0055,2.0061,2.0067,0,0,0,0,0,0,0,0,0,0,0,0,0,1.9399,1.9404,1.9702,1.9704,1.9706,1.9868,1.987,1.9872,1.989,1.9888,1.9886,1.9884,2.0053,2.006,2.0067,0,0,0,0,0,0,0,0,0,0,0,0,0,1.9544,1.9406,1.9702,1.9735,1.9739,1.9867,1.987,1.9873,1.9891,1.9888,1.9886,1.9883,2.005,2.0059,2.0068,2.0174,0,0,2.0096,2.01,0,0,0,0,0,0,0,0,1.9536,1.9555,1.9728,1.9733,1.9738,1.9856,1.9825,1.9974,1.9891,1.9833,1.9885,1.9882,1.999,2.0004,2.0041,2.0182,2.019,2.0097,2.0102,2.0106,2.0109,0,0,0,0,0,0,0,1.9526,1.9548,1.9768,1.973,1.9737,1.974,1.9758,1.9853,1.9924,1.9838,1.984,1.9859,1.9993,2.0032,2.0045,2.0192,2.0096,2.0105,2.011,2.0114,2.0425,2.0427,0,0,0,0,0,0,1.951,1.954,1.9763,1.9773,1.9629,1.9748,1.9768,1.9821,1.9923,1.9936,1.9861,1.9859,2.0018,2.0034,2.0051,2.018,2.0106,2.0115,2.012,2.0422,2.0425,2.0428,0,0,0,0,0,0,1.9503,1.953,1.9756,1.9657,1.9686,1.9756,1.9815,1.9825,1.9865,1.994,1.9953,1.9889,2.0016,2.0038,2.0143,2.0186,2.0119,2.0127,2.0419,2.0423,2.0427,2.044,0,0,0,0,0,0,1.9495,1.9527,1.9569,1.9658,1.9691,1.9846,1.9818,1.983,1.988,1.9879,1.9969,1.9982,2.0016,2.0129,2.0152,2.0197,2.0134,2.0415,2.0421,2.0426,2.0436,2.0444,2.0451,0,0,0,0,0,1.9484,1.9567,1.9571,1.9598,1.9745,1.9848,1.9868,1.9905,1.9884,1.9926,1.9974,1.9979,2.0177,2.014,2.0165,2.0214,2.0413,2.0419,2.0425,2.0433,2.0442,2.0451,0,0,0,0,0,0,1.9484,1.958,1.9585,1.97,1.9766,1.9851,1.9906,1.9915,1.9989,1.9985,2.0028,2.0048,2.015,2.0193,2.0149,2.032,2.0293,2.0304,2.0289,2.0299,2.0307,2.0294,2.0142,0,0,0,0,0,1.9496,1.9573,1.9652,1.9746,1.9778,1.9836,1.9883,1.9906,1.9976,2.0004,2.006,2.0127,2.0204,2.0254,2.0329,2.0441,2.046,2.0488,2.0495,2.0501,2.0511,2.057,2.0582,2.0449,2.0449,2.0449,0,0,1.9525,1.9587,1.9633,1.9747,1.9801,1.9877,1.986,1.9943,1.9999,2.0016,2.0118,2.016,2.0238,2.0346,2.0396,2.0384,2.0551,2.0509,2.0513,2.052,2.0577,2.059,2.0601,2.0453,2.0453,2.0452,0,0,1.9615,1.9671,1.9753,1.9806,1.9887,1.9924,1.9944,2.0028,2.0056,2.0159,2.0172,2.0239,2.0372,2.0426,2.0471,2.0576,2.0583,2.0599,2.0639,2.0696,2.0706,2.0716,2.0752,2.0764,2.0609,2.0609,2.0609,0,1.9641,1.9757,1.9795,1.9876,1.9925,1.9942,2.0025,2.0074,2.0176,2.0209,2.0194,2.0358,2.0412,2.0531,2.0556,2.0592,2.0614,2.059,2.0702,2.0712,2.0721,2.0756,2.0769,2.061,2.061,2.061,2.061,0,1.9783,1.9863,1.992,2.0016,2.0071,2.0153,2.0201,2.0252,2.0269,2.0307,2.0409,2.0473,2.056,2.059,2.0608,2.0711,2.07,2.0693,2.0666,2.0735,2.0767,2.0781,2.0612,2.0612,2.0611,2.0611,0,0,1.9881,1.9993,2.0013,2.0055,2.0144,2.0206,2.0287,2.0371,2.0413,2.0481,2.0549,2.0659,2.0651,2.0702,2.0726,2.0776,2.0852,2.0762,2.0765,2.0775,2.0966,2.097,2.0985,2.0856,2.0859,2.0861,2.0958,0,1.998,2.0125,2.0159,2.0283,2.0356,2.0371,2.0441,2.0502,2.0539,2.0605,2.0645,2.0721,2.0707,2.0737,2.0787,2.0832,2.0891,2.0826,2.0918,2.0921,2.0898,2.1002,2.1008,2.1097,2.0972,2.0974,2.0976,0,2.0117,2.0186,2.0317,2.0392,2.0424,2.0486,2.0564,2.0628,2.0696,2.0719,2.0773,2.0791,2.0873,2.0841,2.0954,2.0909,2.0948,2.0975,2.0979,2.0989,2.0952,2.1014,2.1127,2.1139,2.0997,2.0995,2.0994,0,2.0172,2.0299,2.0392,2.0428,2.0519,2.0562,2.0602,2.0667,2.0714,2.0782,2.0813,2.0889,2.0931,2.0989,2.1026,2.0999,2.1134,2.1106,2.1154,2.1153,2.1183,2.118,2.1302,2.1209,2.1209,2.1209,2.1208,0,2.028,2.0359,2.0418,2.0476,2.0563,2.0601,2.0686,2.0726,2.0783,2.0847,2.0865,2.0924,2.097,2.1035,2.1064,2.1151,2.1171,2.119,2.1197,2.1188,2.1186,2.1215,2.1209,2.1212,2.1211,2.1211,2.121,0,2.0358,2.0401,2.0504,2.058,2.0601,2.0662,2.0726,2.0782,2.0817,2.0898,2.0919,2.0975,2.1052,2.1094,2.1192,2.1211,2.1308,2.1312,2.1285,2.1288,2.1333,2.1327,2.1477,2.1497,2.1392,2.1393,2.1393,0,2.0423,2.0484,2.0566,2.061,2.065,2.0721,2.0768,2.0806,2.0854,2.0934,2.0979,2.1057,2.1121,2.1243,2.1292,2.1365,2.137,2.1418,2.1382,2.137,2.1369,2.1365,2.137,2.1424,2.1425,2.1426,2.1426,0,2.0534,2.0551,2.062,2.0694,2.075,2.0811,2.0871,2.0905,2.0952,2.1005,2.1084,2.1134,2.1231,2.1308,2.1384,2.1423,2.1432,2.1437,2.1452,2.1443,2.1424,2.1433,2.1301,2.1434,2.1433,2.1432,2.1432,2.1432,2.0607,2.066,2.0725,2.0799,2.0848,2.0902,2.0957,2.0998,2.1065,2.1147,2.1165,2.1247,2.1309,2.1413,2.1454,2.1517,2.1508,2.153,2.1535,2.154,2.154,2.1414,2.1531,2.1531,2.1531,2.1531,2.1531,0,2.0717,2.0759,2.0827,2.0909,2.0966,2.0968,2.1034,2.1081,2.1154,2.1211,2.1273,2.1362,2.1435,2.1487,2.1561,2.1602,2.1607,2.162,2.1617,2.1625,2.1546,2.1525,2.1614,2.1614,2.1614,2.1614,2.1614,2.1614,2.0782,2.0871,2.0895,2.1007,2.1048,2.1129,2.1166,2.1215,2.1261,2.1359,2.1419,2.1453,2.1507,2.1585,2.1651,2.1664,2.169,2.1701,2.1715,2.164,2.1631,2.1623,2.1603,2.1707,2.1707,2.1789,2.179,2.179]}]]